Ely, MN

9:40 PM CDT on September 20, 2017 (GMT -0500)
Ely Municipal

Weather History for KELO - September, 2012

Change the Weather History Date:

Sunday, September 9, 2012

  Actual Average Record
Temperature  
Mean Temperature 53 °F -  
Max Temperature 64 °F 67 °F 86 °F (2011)
Min Temperature 42 °F 47 °F 28 °F (2006)
Degree Days  
Heating Degree Days 12    
Growing Degree Days 3 (Base 50)    
Moisture  
Dew Point 45 °F    
Average Humidity 77    
Maximum Humidity 100    
Minimum Humidity 40    
Precipitation  
Precipitation 0.00 in - - ()
Sea Level Pressure  
Sea Level Pressure 30.10 in    
Wind  
Wind Speed 3 mph (NW)    
Max Wind Speed 9 mph    
Max Gust Speed -    
Visibility 10 miles    
Events      
Averages and records for this station are not official NWS values.
T = Trace of Precipitation, MM = Missing Value Source: NWS Daily Summary

Daily Weather History Graph

Daily Weather History Graph

Search for Another Location

Airport or City:

Trip Planner

Search our weather history database for the weather conditions in past years. The results will help you decide how hot, cold, wet, or windy it might be!

Date:

Astronomy

Sep. 09, 2012 Rise Set
Actual Time 6:37 AM CDT 7:30 PM CDT
Civil Twilight 6:05 AM CDT 8:02 PM CDT
Nautical Twilight 5:28 AM CDT 8:39 PM CDT
Astronomical Twilight 4:48 AM CDT 9:19 PM CDT
Moon No Moon Rise 3:35 PM CDT (9/9)
Length of Visible Light 13h 56m
Length of Day
12h 53m
Last Quarter, 39% of the Moon is Illuminated
Sep 9
Last Quarter
Sep 15
New
Sep 22
First Quarter
Sep 29
Full
Oct 8
Last Quarter

Hourly Weather History & Observations

Time (CDT) Temp. Dew Point Humidity Pressure Visibility Wind Dir Wind Speed Gust Speed Precip Events Conditions
12:13 AM 51.8 °F 48.2 °F 88% 30.01 in 10.0 mi WNW 4.6 mph - N/A   Clear
12:32 AM 50.0 °F 48.2 °F 94% 30.01 in 10.0 mi NW 4.6 mph - N/A   Clear
12:53 AM 50.0 °F 48.2 °F 94% 30.02 in 10.0 mi WNW 5.8 mph - N/A   Clear
1:13 AM 50.0 °F 48.2 °F 94% 30.03 in 10.0 mi NW 5.8 mph - N/A   Clear
1:32 AM 50.0 °F 48.2 °F 94% 30.03 in 10.0 mi NW 4.6 mph - N/A   Clear
1:53 AM 50.0 °F 48.2 °F 94% 30.03 in 10.0 mi NW 4.6 mph - N/A   Clear
2:12 AM 48.2 °F 48.2 °F 100% 30.04 in 10.0 mi NW 4.6 mph - N/A   Clear
2:33 AM 48.2 °F 48.2 °F 100% 30.04 in 10.0 mi NW 6.9 mph - N/A   Clear
2:53 AM 48.2 °F 46.4 °F 93% 30.04 in 10.0 mi NNW 3.5 mph - N/A   Clear
3:12 AM 48.2 °F 46.4 °F 93% 30.05 in 10.0 mi NW 3.5 mph - N/A   Clear
3:33 AM 48.2 °F 46.4 °F 93% 30.06 in 10.0 mi NW 3.5 mph - N/A   Clear
3:53 AM 48.2 °F 46.4 °F 93% 30.07 in 10.0 mi Calm Calm - N/A   Clear
4:12 AM 48.2 °F 46.4 °F 93% 30.07 in 10.0 mi Calm Calm - N/A   Clear
4:33 AM 46.4 °F 46.4 °F 100% 30.08 in 10.0 mi Calm Calm - N/A   Clear
4:53 AM 46.4 °F 46.4 °F 100% 30.08 in 10.0 mi Calm Calm - N/A   Clear
5:12 AM 46.4 °F 46.4 °F 100% 30.09 in 10.0 mi Calm Calm - N/A   Clear
5:33 AM 46.4 °F 44.6 °F 93% 30.10 in 10.0 mi Calm Calm - N/A   Clear
5:52 AM 46.4 °F 44.6 °F 93% 30.11 in 10.0 mi Calm Calm - N/A   Clear
6:13 AM 44.6 °F 44.6 °F 100% 30.12 in 10.0 mi Calm Calm - N/A   Clear
6:33 AM 44.6 °F 44.6 °F 100% 30.12 in 10.0 mi Calm Calm - N/A   Clear
6:52 AM 44.6 °F 44.6 °F 100% 30.13 in 5.0 mi Calm Calm - N/A   Clear
7:13 AM 44.6 °F 44.6 °F 100% 30.13 in 10.0 mi Calm Calm - N/A   Clear
7:33 AM 46.4 °F 46.4 °F 100% 30.14 in 10.0 mi Calm Calm - N/A   Clear
7:52 AM 48.2 °F 46.4 °F 93% 30.14 in 10.0 mi NW 3.5 mph - N/A   Clear
8:13 AM 48.2 °F 48.2 °F 100% 30.15 in 10.0 mi NW 4.6 mph - N/A   Clear
8:32 AM 50.0 °F 48.2 °F 94% 30.15 in 10.0 mi NW 6.9 mph - N/A   Clear
8:53 AM 51.8 °F 48.2 °F 88% 30.15 in 10.0 mi Calm Calm - N/A   Scattered Clouds
9:13 AM 51.8 °F 46.4 °F 82% 30.15 in 10.0 mi Calm Calm - N/A   Scattered Clouds
9:32 AM 51.8 °F 48.2 °F 88% 30.16 in 10.0 mi Calm Calm - N/A   Scattered Clouds
9:53 AM 53.6 °F 46.4 °F 77% 30.16 in 10.0 mi North 5.8 mph - N/A   Mostly Cloudy
10:13 AM 53.6 °F 48.2 °F 82% 30.16 in 10.0 mi WNW 3.5 mph - N/A   Overcast
10:32 AM 53.6 °F 44.6 °F 72% 30.16 in 10.0 mi Calm Calm - N/A   Mostly Cloudy
10:53 AM 55.4 °F 44.6 °F 67% 30.16 in 10.0 mi Calm Calm - N/A   Scattered Clouds
11:13 AM 57.2 °F 44.6 °F 63% 30.16 in 10.0 mi North 4.6 mph - N/A   Scattered Clouds
11:32 AM 57.2 °F 44.6 °F 63% 30.16 in 10.0 mi WNW 9.2 mph - N/A   Mostly Cloudy
11:53 AM 57.2 °F 44.6 °F 63% 30.16 in 10.0 mi NW 6.9 mph - N/A   Mostly Cloudy
12:13 PM 59.0 °F 44.6 °F 59% 30.16 in 10.0 mi North 5.8 mph - N/A   Scattered Clouds
12:33 PM 59.0 °F 42.8 °F 55% 30.16 in 10.0 mi NW 3.5 mph - N/A   Scattered Clouds
12:53 PM 60.8 °F 42.8 °F 52% 30.15 in 10.0 mi WNW 8.1 mph - N/A   Scattered Clouds
1:13 PM 62.6 °F 42.8 °F 48% 30.14 in 10.0 mi WNW 9.2 mph - N/A   Scattered Clouds
1:32 PM 62.6 °F 44.6 °F 52% 30.15 in 10.0 mi NW 9.2 mph - N/A   Scattered Clouds
1:53 PM 62.6 °F 44.6 °F 52% 30.14 in 10.0 mi NW 6.9 mph - N/A   Scattered Clouds
2:13 PM 62.6 °F 41.0 °F 45% 30.14 in 10.0 mi WNW 6.9 mph - N/A   Scattered Clouds
2:32 PM 62.6 °F 42.8 °F 48% 30.13 in 10.0 mi NW 5.8 mph - N/A   Clear
2:53 PM 64.4 °F 42.8 °F 45% 30.12 in 10.0 mi Calm Calm - N/A   Clear
3:12 PM 62.6 °F 42.8 °F 48% 30.12 in 10.0 mi Calm Calm - N/A   Clear
3:33 PM 64.4 °F 42.8 °F 45% 30.11 in 10.0 mi Calm Calm - N/A   Clear
3:53 PM 64.4 °F 44.6 °F 49% 30.11 in 10.0 mi SW 5.8 mph - N/A   Clear
4:12 PM 64.4 °F 44.6 °F 49% 30.11 in 10.0 mi West 3.5 mph - N/A   Clear
4:33 PM 64.4 °F 42.8 °F 45% 30.10 in 10.0 mi Calm Calm - N/A   Clear
4:53 PM 64.4 °F 42.8 °F 45% 30.10 in 10.0 mi WSW 3.5 mph - N/A   Clear
5:12 PM 64.4 °F 42.8 °F 45% 30.10 in 10.0 mi WSW 5.8 mph - N/A   Clear
5:33 PM 64.4 °F 39.2 °F 40% 30.10 in 10.0 mi West 4.6 mph - N/A   Clear
5:52 PM 62.6 °F 42.8 °F 48% 30.09 in 10.0 mi WNW 3.5 mph - N/A   Clear
6:13 PM 62.6 °F 41.0 °F 45% 30.09 in 10.0 mi Calm Calm - N/A   Clear
6:33 PM 62.6 °F 42.8 °F 48% 30.08 in 10.0 mi Calm Calm - N/A   Clear
6:52 PM 62.6 °F 42.8 °F 48% 30.08 in 10.0 mi Calm Calm - N/A   Clear
7:13 PM 59.0 °F 48.2 °F 67% 30.08 in 10.0 mi Calm Calm - N/A   Clear
7:33 PM 57.2 °F 46.4 °F 67% 30.08 in 10.0 mi Calm Calm - N/A   Clear
7:52 PM 53.6 °F 46.4 °F 77% 30.08 in 10.0 mi Calm Calm - N/A   Clear
8:12 PM 50.0 °F 46.4 °F 87% 30.08 in 10.0 mi Calm Calm - N/A   Clear
8:33 PM 48.2 °F 46.4 °F 93% 30.08 in 10.0 mi Calm Calm - N/A   Clear
8:52 PM 48.2 °F 44.6 °F 87% 30.08 in 10.0 mi Calm Calm - N/A   Clear
9:13 PM 48.2 °F 44.6 °F 87% 30.08 in 10.0 mi Calm Calm - N/A   Clear
9:33 PM 46.4 °F 44.6 °F 93% 30.08 in 10.0 mi Calm Calm - N/A   Clear
9:52 PM 46.4 °F 44.6 °F 93% 30.08 in 10.0 mi Calm Calm - N/A   Clear
10:13 PM 46.4 °F 42.8 °F 87% 30.07 in 10.0 mi Calm Calm - N/A   Clear
10:33 PM 44.6 °F 42.8 °F 93% 30.07 in 10.0 mi Calm Calm - N/A   Clear
10:52 PM 44.6 °F 42.8 °F 93% 30.07 in 10.0 mi Calm Calm - N/A   Clear
11:13 PM 44.6 °F 41.0 °F 87% 30.06 in 10.0 mi Calm Calm - N/A   Clear
11:32 PM 42.8 °F 41.0 °F 93% 30.06 in 10.0 mi Calm Calm - N/A   Clear
11:53 PM 42.8 °F 41.0 °F 93% 30.06 in 10.0 mi Calm Calm - N/A   Clear